Temp
60 59 59 60 60 60 60 60 59 58 57 57 57 57 58 58 57 57 56 56 56 56 57 57 58 58 54 53 58 74 68 69 70 73 70 70 67 65 60 63 64 63 67 70 73 73 71
59 59 59 58 58 59 59 59 58 58 58 57 57 57 57 57 57 57 56 56 56 56 56 57 58 58 49 46 74 74 73 74 74 72 70 70 68 70 65 64 61 68 68 68 69 69 69
58 58 58 58 58 58 58 57 57 57 57 57 57 57 56 57 56 56 56 56 56 56 56 57 58 57 51 51 71 71 74 73 73 73 69 72 71 64 65 61 68 66 60 63 66 67 67
58 58 58 58 57 57 57 57 57 57 57 57 57 57 56 56 55 55 55 55 55 56 56 57 58 55 47 71 69 72 73 71 74 74 72 73 72 65 60 65 63 58 56 49 62 65 68
57 57 58 57 57 56 56 56 56 57 57 56 56 56 56 55 54 54 54 55 55 56 57 58 53 51 50 73 68 74 73 72 73 72 71 78 67 59 60 51 46 50 45 48 55 65 66
57 57 57 57 57 56 56 56 56 56 56 56 56 56 56 55 54 54 54 54 56 56 58 62 61 49 58 63 71 74 72 74 68 68 66 62 56 50 48 45 39 43 45 52 51 59 60
57 57 57 57 56 56 56 56 56 55 55 56 55 56 55 54 54 54 52 49 50 49 53 53 55 55 60 70 73 69 72 69 67 62 51 57 46 41 48 51 54 52 51 49 55 61 57
56 56 56 56 56 56 56 56 55 55 54 54 55 55 55 54 54 54 50 48 54 52 41 54 56 56 62 65 57 64 70 60 58 51 55 51 46 54 58 57 54 53 50 50 56 59 59
55 55 55 55 56 56 56 56 55 55 54 54 54 54 54 53 54 51 49 52 60 56 39 49 58 58 60 63 57 59 66 61 56 53 53 48 53 61 59 56 54 54 50 49 50 56 58
55 54 54 55 55 55 55 55 55 54 54 54 54 54 54 53 49 49 47 58 58 54 32 44 56 63 66 66 56 68 69 63 56 51 52 51 60 58 56 54 56 48 56 56 54 48 40
54 54 54 54 54 54 54 54 54 54 54 54 53 53 54 53 45 44 52 57 56 49 21 56 59 71 67 58 62 63 70 63 53 53 52 48 52 52 52 54 57 52 57 55 52 46 43
54 53 53 53 53 53 53 53 53 53 53 53 53 53 53 50 46 50 56 55 48 32 22 49 60 56 56 58 59 63 62 65 63 55 54 52 59 55 54 59 60 59 52 53 50 44 36
52 53 53 53 53 53 53 53 53 53 53 52 52 52 51 53 41 54 55 44 28 23 51 49 53 57 54 53 55 57 55 51 45 40 41 50 52 58 60 52 55 52 44 33 31 31 33
52 52 53 53 53 52 52 52 52 52 52 52 52 51 49 51 51 49 47 33 22 38 42 54 54 54 50 54 53 55 53 47 53 50 45 41 38 51 58 54 49 46 44 32 26 27 34
52 52 52 52 52 52 52 51 51 52 52 52 51 43 43 47 49 46 38 23 27 38 46 45 47 44 46 51 50 49 48 47 51 49 41 39 43 55 58 58 56 48 42 50 40 41 34
52 52 52 51 52 51 51 51 51 51 51 51 40 38 40 49 48 43 32 29 34 45 47 45 35 44 39 44 43 44 45 52 51 53 52 46 36 52 57 59 56 50 53 38 41 29 26
51 52 51 51 51 51 51 51 51 51 51 50 38 33 43 48 45 36 27 28 38 45 46 40 39 39 40 39 42 40 43 51 54 51 52 46 43 40 51 48 43 42 42 44 44 41 29
51 50 50 51 51 51 51 51 51 50 50 45 39 28 44 46 33 34 29 37 43 42 46 43 46 42 39 40 38 39 40 46 54 52 44 45 40 32 39 50 50 46 41 43 35 35 38
50 50 50 50 51 51 51 50 50 49 49 38 33 34 42 43 26 29 36 38 41 40 41 43 43 45 44 39 33 40 42 50 52 48 43 45 36 28 34 42 48 44 45 45 40 44 38
50 49 50 50 50 50 51 51 50 49 49 40 34 25 32 34 35 31 30 32 33 43 43 46 44 45 41 37 41 36 40 47 49 49 49 47 39 34 27 33 41 37 44 47 36 32 34
49 49 49 50 50 50 50 50 50 50 49 40 33 29 35 20 30 32 34 35 33 31 41 45 41 41 38 34 36 35 41 43 47 49 46 42 31 37 39 41 42 41 42 45 42 44 34
49 50 50 49 49 50 49 49 50 50 49 38 30 30 33 31 36 34 33 33 34 38 33 34 33 39 40 36 37 33 37 37 37 42 41 44 32 36 33 40 41 38 42 44 45 47 46
49 49 49 49 49 50 49 49 49 49 47 37 37 38 34 33 31 32 31 35 36 36 40 45 40 37 36 39 41 42 41 41 40 37 35 35 34 31 27 37 37 30 39 43 45 49 48
49 49 49 49 49 49 49 49 49 49 47 39 39 38 32 26 31 32 39 40 37 35 34 41 44 37 42 50 45 43 42 42 41 40 42 34 31 29 26 31 20 38 49 51 48 51 53
49 48 48 49 49 49 49 49 48 48 48 40 41 36 35 28 35 36 38 37 39 41 38 40 43 45 45 40 27 29 29 33 36 41 40 41 34 28 25 26 33 40 48 48 46 43 47
48 48 48 48 48 49 49 48 48 48 48 41 40 41 36 30 28 40 33 34 30 31 33 39 47 45 40 30 25 21 21 28 29 31 44 42 38 31 26 23 19 39 47 52 51 34 45
48 48 48 48 48 48 48 48 48 48 48 42 38 42 38 31 35 38 29 33 37 34 31 36 36 37 40 31 21 22 25 37 27 27 29 31 30 27 25 22 31 45 51 54 32 33 46
47 48 47 48 48 48 48 48 48 48 48 43 38 42 39 34 37 41 41 35 35 35 28 35 33 34 33 28 24 27 26 33 33 38 32 29 25 24 27 20 22 49 49 39 41 46 47
47 47 47 47 48 48 48 48 48 48 48 47 35 44 44 37 34 43 44 45 44 42 36 38 34 34 34 31 33 32 28 30 31 26 35 29 34 30 30 30 43 46 43 47 48 46 46
MSLP
1022.88 1022.70 1022.48 1022.61 1022.61 1022.69 1022.49 1022.32 1022.29 1022.13 1022.11 1022.01 1021.75 1021.32 1021.09 1020.60 1020.37 1019.96 1019.35 1018.84 1018.17 1017.67 1017.18 1016.83 1016.41 1016.02 1015.15 1013.82 1010.12 1007.33 1007.63 1007.78 1007.87 1007.84 1007.68 1007.57 1007.51 1007.33 1007.06 1006.79 1006.52 1006.07 1005.67 1004.86 1004.20 1003.61 1003.14
1023.07 1022.88 1022.71 1022.59 1022.50 1022.36 1022.34 1022.31 1022.14 1022.12 1021.86 1021.80 1021.72 1021.39 1020.90 1020.54 1020.08 1019.78 1019.17 1018.37 1017.62 1017.12 1016.58 1016.45 1016.13 1015.95 1015.53 1012.92 1007.65 1007.22 1007.58 1007.59 1007.31 1007.24 1007.15 1007.10 1006.94 1006.68 1006.46 1006.23 1006.09 1005.72 1005.24 1004.57 1003.88 1003.39 1003.00
1023.15 1022.89 1022.87 1022.60 1022.58 1022.41 1022.25 1022.21 1022.13 1022.02 1021.88 1021.54 1021.36 1021.22 1020.84 1020.35 1019.91 1019.36 1018.72 1017.79 1016.94 1016.40 1015.94 1015.81 1015.77 1015.56 1014.50 1010.37 1007.45 1007.19 1007.32 1007.05 1006.96 1006.90 1006.98 1006.50 1006.47 1006.74 1006.49 1006.35 1005.92 1005.58 1005.38 1004.49 1003.69 1003.24 1002.88
1023.00 1022.90 1022.89 1022.67 1022.48 1022.43 1022.24 1022.18 1021.96 1021.82 1021.69 1021.43 1021.01 1021.03 1020.68 1020.17 1019.65 1019.04 1018.17 1017.21 1016.21 1015.54 1015.25 1015.01 1015.14 1015.09 1012.59 1008.35 1007.51 1007.09 1006.84 1006.69 1006.37 1006.30 1006.51 1006.24 1006.29 1006.62 1006.73 1006.79 1006.38 1006.33 1005.96 1005.32 1004.15 1003.61 1002.92
1023.11 1022.86 1022.83 1022.67 1022.65 1022.34 1022.15 1022.11 1021.90 1021.70 1021.28 1021.26 1021.05 1020.83 1020.54 1019.99 1019.43 1018.66 1017.68 1016.37 1014.81 1014.27 1014.37 1014.47 1014.69 1014.43 1010.78 1007.48 1007.30 1006.52 1006.56 1006.44 1006.17 1005.88 1005.92 1005.89 1006.40 1006.82 1007.29 1007.62 1007.61 1007.04 1006.37 1005.62 1004.09 1004.16 1003.50
1023.09 1022.89 1022.68 1022.54 1022.51 1022.27 1022.00 1022.00 1021.73 1021.45 1021.20 1020.99 1020.83 1020.65 1020.42 1019.80 1019.23 1018.31 1017.27 1015.22 1013.09 1013.27 1013.66 1013.97 1013.68 1013.55 1009.87 1007.25 1006.22 1006.16 1006.01 1006.31 1006.53 1006.15 1006.14 1006.16 1006.56 1006.98 1007.55 1008.29 1007.56 1007.12 1006.72 1005.34 1004.46 1004.03 1003.48
1022.88 1022.83 1022.61 1022.44 1022.38 1022.18 1021.95 1021.77 1021.59 1021.51 1021.15 1020.86 1020.56 1020.37 1020.22 1019.83 1019.15 1018.33 1017.31 1015.46 1013.95 1013.64 1013.58 1012.95 1012.12 1010.41 1008.02 1006.98 1006.21 1005.70 1006.11 1006.26 1006.18 1006.32 1006.50 1006.44 1006.77 1007.07 1006.72 1006.96 1006.69 1006.83 1006.40 1005.39 1004.35 1004.07 1003.53
1022.67 1022.64 1022.40 1022.25 1022.20 1021.92 1021.78 1021.71 1021.49 1021.33 1021.15 1020.78 1020.52 1020.32 1020.20 1019.86 1019.06 1018.17 1017.55 1016.79 1015.82 1015.87 1013.77 1012.16 1010.49 1009.43 1007.64 1008.11 1007.58 1005.42 1006.06 1006.29 1005.84 1005.79 1006.49 1006.73 1005.76 1005.83 1006.07 1006.08 1006.18 1006.17 1005.58 1004.91 1004.14 1003.77 1003.64
1022.41 1022.41 1022.24 1022.08 1021.97 1021.65 1021.63 1021.53 1021.36 1021.15 1021.11 1020.73 1020.51 1020.26 1020.09 1019.82 1018.89 1018.08 1017.71 1016.67 1015.73 1015.62 1014.84 1010.49 1007.90 1006.83 1006.25 1006.51 1006.13 1005.13 1005.57 1005.27 1005.54 1005.80 1006.00 1005.65 1004.73 1004.77 1005.12 1004.99 1005.02 1004.83 1004.81 1004.43 1004.33 1003.74 1003.41
1022.14 1022.19 1022.26 1021.97 1021.80 1021.61 1021.43 1021.44 1021.29 1021.04 1020.97 1020.79 1020.44 1020.27 1020.09 1019.82 1018.85 1018.66 1017.57 1016.73 1016.18 1016.18 1014.72 1008.94 1006.06 1003.98 1004.40 1004.74 1004.77 1003.95 1004.16 1004.70 1005.11 1005.04 1005.51 1005.10 1004.30 1004.16 1004.05 1003.90 1004.24 1003.86 1003.93 1004.07 1004.09 1004.15 1004.11
1022.15 1021.97 1021.79 1021.82 1021.65 1021.50 1021.34 1021.34 1021.13 1020.95 1020.88 1020.72 1020.51 1020.32 1020.05 1020.05 1020.03 1019.23 1018.08 1017.18 1016.58 1016.32 1013.81 1005.82 1004.37 1003.13 1003.71 1004.40 1003.55 1003.03 1003.40 1003.96 1004.27 1004.65 1005.18 1003.91 1003.49 1003.53 1003.20 1003.07 1003.37 1002.99 1003.35 1003.71 1003.87 1004.07 1004.09
1022.05 1021.67 1021.55 1021.52 1021.54 1021.44 1021.32 1021.21 1020.94 1020.83 1020.78 1020.61 1020.42 1020.13 1019.91 1019.93 1019.77 1019.11 1018.31 1017.61 1017.23 1016.63 1011.47 1006.09 1003.95 1003.70 1003.96 1004.08 1003.56 1003.03 1003.24 1003.63 1004.04 1004.79 1004.71 1003.83 1003.41 1003.19 1002.70 1002.42 1002.51 1002.77 1003.27 1003.65 1003.92 1004.35 1004.08
1021.67 1021.33 1021.21 1021.30 1021.30 1021.23 1021.15 1020.96 1020.80 1020.66 1020.56 1020.35 1020.08 1019.89 1019.91 1019.75 1019.60 1018.82 1018.51 1018.16 1017.68 1014.76 1009.13 1005.78 1004.31 1003.72 1003.78 1003.73 1003.54 1003.50 1003.57 1003.99 1004.44 1004.76 1004.73 1004.10 1003.02 1002.39 1002.44 1002.67 1002.33 1002.73 1003.83 1004.76 1004.80 1004.84 1003.44
1021.11 1020.95 1020.97 1021.00 1020.96 1020.97 1020.83 1020.68 1020.55 1020.46 1020.31 1020.20 1019.91 1019.69 1019.57 1019.40 1019.28 1019.06 1019.12 1018.93 1016.95 1012.47 1009.94 1006.20 1005.81 1004.72 1003.73 1003.60 1003.47 1003.54 1003.51 1003.76 1004.00 1004.47 1004.58 1004.11 1003.17 1002.23 1001.79 1001.82 1001.95 1002.58 1003.93 1004.65 1004.82 1004.78 1004.08
1020.67 1020.63 1020.66 1020.69 1020.70 1020.75 1020.71 1020.50 1020.37 1020.33 1020.34 1020.07 1019.77 1019.44 1018.97 1018.83 1018.72 1019.20 1019.64 1018.31 1014.89 1012.67 1010.76 1009.13 1007.35 1006.19 1004.93 1004.36 1004.51 1004.23 1003.91 1004.02 1003.85 1004.25 1004.83 1004.19 1003.08 1002.47 1002.09 1001.69 1001.50 1002.43 1003.27 1003.62 1004.57 1004.64 1004.33
1020.37 1020.33 1020.38 1020.47 1020.51 1020.51 1020.42 1020.40 1020.35 1020.22 1020.09 1019.98 1019.89 1019.28 1018.34 1017.61 1018.01 1018.91 1019.16 1016.76 1014.49 1012.72 1011.07 1010.61 1009.64 1007.96 1006.99 1006.01 1005.81 1005.43 1004.85 1004.14 1004.40 1004.67 1005.01 1005.22 1004.60 1003.58 1002.77 1002.60 1001.96 1002.16 1002.75 1004.03 1004.33 1004.93 1004.52
1020.05 1020.05 1020.06 1020.07 1020.16 1020.29 1020.17 1020.13 1020.15 1019.99 1020.00 1020.02 1020.11 1019.53 1017.55 1016.83 1017.91 1018.69 1017.34 1016.01 1014.54 1013.27 1012.65 1011.91 1010.44 1009.30 1008.68 1008.10 1007.43 1006.80 1006.29 1005.65 1005.01 1005.48 1005.61 1005.74 1005.94 1005.25 1004.62 1003.96 1004.11 1004.00 1003.51 1003.93 1004.41 1004.97 1004.16
1019.65 1019.72 1019.67 1019.68 1019.81 1019.82 1019.89 1019.87 1019.90 1019.86 1019.93 1020.10 1020.03 1019.47 1017.03 1016.66 1017.77 1017.49 1016.52 1015.26 1014.39 1013.07 1012.42 1011.77 1010.45 1009.83 1009.89 1009.40 1008.59 1008.10 1007.39 1006.90 1006.66 1006.85 1006.91 1006.82 1007.06 1006.58 1005.71 1004.82 1005.02 1005.15 1005.25 1005.34 1005.02 1004.55 1003.81
1019.18 1019.29 1019.27 1019.34 1019.40 1019.46 1019.54 1019.53 1019.55 1019.67 1019.77 1020.15 1019.89 1018.84 1017.10 1017.04 1016.96 1016.71 1015.69 1014.99 1014.16 1013.24 1012.20 1011.37 1010.64 1010.19 1010.25 1010.22 1010.14 1009.01 1008.26 1007.36 1007.51 1007.40 1007.52 1007.58 1007.79 1007.63 1006.42 1005.37 1004.86 1005.28 1005.39 1006.06 1006.16 1004.17 1003.57
1018.70 1018.73 1018.82 1018.87 1018.94 1019.00 1019.06 1019.07 1019.16 1019.26 1019.48 1020.19 1020.18 1019.04 1017.39 1017.16 1017.07 1016.84 1016.01 1015.21 1014.31 1013.06 1012.13 1011.29 1010.69 1010.39 1010.52 1010.59 1010.43 1009.93 1009.25 1008.24 1007.93 1008.14 1008.07 1008.18 1008.63 1009.03 1008.74 1007.68 1007.20 1006.75 1006.29 1006.08 1006.89 1005.42 1004.36
1018.17 1018.23 1018.31 1018.36 1018.48 1018.49 1018.55 1018.64 1018.75 1018.87 1019.20 1020.01 1020.09 1018.91 1017.60 1017.17 1016.76 1016.50 1016.15 1015.12 1014.30 1013.98 1012.67 1010.91 1010.73 1010.66 1010.89 1011.05 1010.86 1010.49 1009.99 1009.36 1008.77 1008.50 1008.59 1008.88 1009.30 1009.46 1008.93 1008.26 1007.58 1006.76 1005.88 1005.35 1004.99 1004.61 1004.50
1017.62 1017.63 1017.66 1017.88 1017.89 1017.91 1018.00 1018.06 1018.19 1018.41 1018.81 1019.56 1019.55 1019.04 1017.84 1017.37 1016.58 1015.90 1015.51 1014.39 1013.99 1013.25 1013.47 1012.01 1011.61 1011.02 1011.13 1011.14 1011.13 1011.15 1010.97 1010.54 1010.16 1009.68 1009.50 1009.27 1009.59 1009.80 1009.23 1008.54 1007.56 1006.57 1005.25 1004.37 1003.72 1003.29 1002.92
1017.04 1017.04 1017.09 1017.21 1017.28 1017.30 1017.48 1017.60 1017.70 1017.82 1018.36 1018.75 1019.05 1018.69 1018.58 1017.05 1016.67 1015.71 1014.68 1013.76 1013.55 1013.37 1012.39 1011.47 1011.58 1011.53 1011.40 1011.35 1011.44 1011.27 1011.37 1011.21 1010.92 1010.78 1010.55 1010.72 1010.66 1010.60 1009.35 1009.05 1007.63 1005.64 1004.34 1003.41 1002.56 1002.30 1002.42
1016.36 1016.38 1016.51 1016.56 1016.59 1016.71 1016.82 1016.95 1017.14 1017.33 1017.81 1018.63 1018.69 1018.33 1017.88 1016.64 1016.02 1015.08 1013.89 1013.45 1013.01 1013.11 1012.44 1011.62 1011.14 1011.50 1011.68 1011.26 1011.53 1011.35 1011.14 1010.76 1010.48 1010.26 1010.32 1010.58 1011.01 1010.98 1009.82 1009.49 1007.98 1003.97 1003.49 1002.52 1001.89 1001.67 1001.66
1015.60 1015.71 1015.78 1015.81 1015.83 1015.99 1016.18 1016.32 1016.55 1016.78 1017.15 1017.94 1018.16 1018.08 1017.60 1016.37 1015.30 1014.43 1013.91 1013.68 1013.25 1012.96 1012.49 1011.68 1011.29 1011.43 1011.30 1011.75 1012.21 1011.84 1011.14 1010.45 1009.46 1009.10 1009.42 1009.91 1010.72 1011.02 1010.68 1009.04 1007.02 1004.43 1003.20 1001.92 1001.69 1002.28 1003.08
1014.86 1014.98 1015.02 1015.12 1015.17 1015.37 1015.53 1015.70 1015.98 1016.31 1016.65 1017.20 1017.39 1017.65 1017.75 1016.60 1015.12 1014.48 1014.35 1014.37 1014.13 1013.42 1012.81 1011.96 1011.40 1011.48 1011.96 1012.37 1012.90 1012.80 1011.85 1010.48 1009.51 1009.04 1007.97 1008.88 1009.84 1010.87 1010.42 1009.15 1006.73 1004.10 1003.26 1002.48 1002.08 1002.94 1003.76
1014.10 1014.23 1014.35 1014.42 1014.53 1014.73 1014.93 1015.16 1015.38 1015.65 1015.96 1016.58 1016.66 1016.78 1017.09 1016.67 1015.04 1014.61 1014.35 1014.19 1014.30 1014.20 1014.06 1012.94 1013.12 1012.43 1012.02 1013.07 1013.51 1012.95 1011.74 1010.36 1009.59 1008.74 1007.77 1008.49 1009.35 1009.77 1010.09 1009.16 1006.84 1004.33 1003.19 1002.66 1003.22 1004.70 1004.19
1013.26 1013.44 1013.59 1013.73 1013.83 1014.04 1014.33 1014.61 1014.83 1015.05 1015.32 1015.87 1016.00 1016.21 1016.57 1016.16 1015.10 1014.61 1014.24 1014.16 1014.11 1014.11 1014.38 1014.21 1013.80 1013.61 1013.34 1013.57 1013.47 1012.48 1011.47 1010.40 1009.43 1008.06 1007.55 1007.75 1008.64 1009.07 1009.36 1008.75 1006.98 1004.41 1003.41 1003.45 1004.03 1004.08 1004.00
1012.34 1012.55 1012.72 1012.90 1013.03 1013.30 1013.64 1013.93 1014.20 1014.44 1014.70 1015.12 1015.75 1015.55 1015.76 1016.28 1015.15 1014.19 1013.85 1013.48 1013.52 1013.43 1013.85 1014.00 1014.28 1014.02 1013.94 1013.61 1013.04 1012.67 1011.84 1010.89 1009.77 1008.49 1007.43 1007.93 1007.56 1007.68 1007.57 1006.62 1005.65 1004.96 1004.78 1004.22 1003.94 1004.12 1004.10
Wind_Speed
6 6 7 6 8 9 10 9 7 7 9 10 11 13 14 16 17 19 19 22 22 24 24 23 22 20 10 4 13 7 7 7 5 5 6 9 9 8 10 8 9 14 16 17 17 16 13
7 6 6 8 7 8 9 10 10 10 10 11 13 13 14 17 17 20 21 22 23 23 22 22 21 14 4 8 7 8 5 7 8 6 8 9 7 10 8 8 8 9 12 14 14 13 10
8 8 8 5 7 8 8 9 11 12 12 12 13 15 16 18 19 21 23 24 26 24 22 21 18 6 8 23 9 12 11 6 6 7 6 6 6 2 8 10 7 7 12 15 17 12 14
6 7 8 8 9 10 10 11 12 13 12 14 14 14 15 16 18 21 24 26 28 27 23 19 10 4 11 10 8 10 10 9 11 11 7 9 6 4 2 6 7 6 7 9 9 10 9
7 8 8 8 9 10 11 12 12 13 13 12 13 14 16 15 17 22 25 29 33 24 16 9 3 5 12 11 5 10 9 4 9 6 7 7 3 3 6 3 6 5 12 13 21 12 17
10 10 9 8 10 11 12 12 13 11 12 14 14 15 16 15 18 23 27 33 27 11 6 7 7 4 10 6 3 7 4 6 6 8 3 5 2 3 1 4 12 6 11 14 15 11 6
10 11 9 9 10 11 12 12 12 14 14 14 16 15 16 16 20 24 20 9 8 5 5 8 7 11 17 9 10 4 5 7 8 6 7 6 4 8 18 13 15 14 16 19 17 8 7
9 13 11 10 11 11 12 11 11 11 14 16 15 14 15 15 21 24 10 7 6 4 14 16 25 26 28 11 13 20 7 7 8 13 6 7 15 15 13 13 17 20 21 19 13 5 10
10 11 10 11 12 13 13 12 11 11 13 14 15 15 13 14 22 10 12 8 9 9 6 16 14 12 10 14 15 17 9 7 9 10 12 15 8 16 17 15 14 17 13 8 12 11 12
9 9 10 11 10 11 12 12 12 13 14 14 13 16 11 15 8 10 5 13 8 4 6 10 7 7 10 7 8 21 11 8 8 11 5 11 15 20 19 18 14 17 7 12 14 8 9
10 10 10 11 13 13 12 12 12 12 13 14 14 14 9 5 6 5 8 12 8 4 7 5 8 4 11 11 5 6 11 5 8 8 7 11 5 8 14 16 9 12 8 13 9 5 6
12 10 10 13 10 11 12 13 11 11 13 14 13 13 11 6 2 6 13 15 5 1 11 7 9 10 10 14 8 4 9 5 3 8 9 17 8 6 8 8 14 3 3 9 3 2 11
11 10 12 11 12 12 12 12 11 12 14 14 14 12 7 5 4 9 9 6 1 7 9 7 9 9 13 13 13 13 11 10 6 4 6 13 20 18 12 13 10 3 3 3 3 4 12
11 12 13 13 13 12 13 13 12 12 13 12 10 10 5 6 7 4 4 1 10 8 15 18 18 18 8 6 8 9 12 8 8 8 9 11 13 5 4 18 13 8 9 6 7 4 9
13 12 13 14 12 12 11 12 12 11 10 10 12 4 5 6 9 3 1 6 7 6 9 15 19 13 10 6 5 10 4 4 5 2 3 5 7 8 11 11 14 8 7 11 8 6 7
14 13 13 12 11 12 11 11 10 11 10 10 3 4 5 9 6 4 5 17 12 13 19 15 12 10 13 5 7 8 11 2 3 5 6 6 4 5 9 12 11 7 4 3 3 5 6
15 15 14 14 12 13 13 12 11 10 8 8 2 5 6 6 5 4 9 9 14 19 21 10 18 14 13 12 11 10 5 14 10 5 3 6 5 6 6 3 3 7 4 4 2 7 4
13 14 15 14 13 13 13 13 11 8 7 1 2 4 4 1 6 4 10 6 8 19 22 19 19 1 8 12 11 9 10 7 11 7 4 2 1 5 7 18 2 4 3 9 7 8 6
14 14 13 13 13 13 13 13 11 7 4 1 2 5 6 6 3 9 6 16 18 20 22 18 13 4 6 8 6 6 11 13 9 8 3 3 4 5 8 7 5 4 6 12 17 9 16
14 15 14 14 14 14 14 13 11 9 6 2 2 4 2 2 2 8 8 11 16 15 21 20 16 6 6 6 7 7 13 11 11 6 5 5 1 4 7 13 13 12 17 4 5 3 7
15 15 15 15 15 15 15 14 11 11 9 3 2 4 5 4 5 9 9 7 14 8 12 10 6 7 7 10 10 8 9 10 11 13 4 4 6 8 15 19 19 19 22 18 14 5 5
16 15 12 13 14 15 12 13 13 13 10 3 3 3 4 5 14 6 7 5 15 15 5 8 10 13 9 9 10 4 7 5 2 9 6 3 5 6 14 16 21 21 23 20 17 15 9
16 16 15 15 15 14 13 14 13 13 9 2 3 5 4 4 8 8 5 8 9 13 9 7 11 10 9 5 4 3 4 6 6 3 3 1 2 4 17 14 19 18 12 16 18 15 10
17 16 17 18 17 15 15 14 13 14 11 4 2 3 4 6 7 8 11 7 7 15 12 6 6 2 1 3 6 4 8 11 11 12 9 5 3 2 8 5 14 14 13 17 17 15 10
17 18 18 18 17 15 16 13 11 11 11 3 3 4 3 4 5 7 9 11 11 7 13 4 8 5 5 2 3 5 4 5 12 18 15 13 6 2 5 6 11 15 4 8 5 6 12
19 18 17 17 16 15 14 13 12 11 12 5 4 3 2 4 5 5 3 6 8 5 6 6 7 5 1 3 3 0 4 4 5 9 11 15 11 8 3 4 5 3 8 12 6 2 8
18 17 16 15 14 15 15 14 14 12 13 5 4 8 3 3 6 4 1 2 3 3 5 4 7 5 3 2 1 3 5 6 4 3 2 11 9 13 7 5 8 10 6 5 2 3 3
19 19 18 16 15 15 15 15 15 14 12 8 4 5 3 3 6 8 7 6 3 1 1 5 5 4 1 3 3 4 3 4 6 9 5 9 9 6 4 2 9 7 4 1 3 3 3
20 20 19 18 18 17 17 16 17 17 15 13 3 4 4 6 5 4 6 7 7 8 4 0 2 3 2 3 3 2 3 3 5 4 4 2 1 4 8 7 2 3 2 2 4 1 2
Wind_Direction
355 354 347 330 337 329 326 331 329 323 319 319 320 322 325 334 329 328 325 317 315 314 314 316 317 321 330 259 252 233 188 192 190 211 244 249 244 245 240 233 248 257 257 264 268 264 255
327 336 340 354 353 350 337 329 325 324 320 316 313 312 315 320 327 323 318 314 310 306 309 312 312 317 241 259 251 110 214 199 227 245 239 249 257 269 272 260 252 268 288 286 285 288 288
327 330 324 332 340 341 344 344 342 329 316 312 309 314 315 316 320 318 315 312 309 306 307 306 303 287 253 247 289 313 305 285 291 287 284 269 256 11 313 302 320 314 308 303 291 281 279
350 347 340 337 342 340 329 320 319 318 322 323 314 311 310 313 314 315 311 308 305 302 299 295 280 267 252 265 261 297 266 268 245 244 256 287 334 342 295 322 343 333 306 287 279 292 285
316 316 316 329 333 339 340 336 329 320 320 316 324 319 311 313 314 311 310 308 301 299 286 253 255 216 263 313 222 239 230 317 328 232 222 245 303 206 345 320 319 216 258 258 284 268 281
310 310 304 315 317 322 323 322 325 336 344 340 321 325 321 318 317 312 314 310 294 298 254 217 248 261 255 237 170 314 303 299 257 285 245 206 197 173 126 156 240 232 237 259 257 263 310
299 294 303 305 312 317 326 315 333 349 344 338 336 328 325 321 314 314 327 330 15 359 9 270 279 249 292 301 324 252 301 272 250 235 227 198 160 210 217 211 240 255 264 269 277 284 291
312 302 287 293 307 309 314 323 332 345 345 343 336 327 322 322 313 316 318 330 51 266 301 271 259 263 258 283 283 281 251 222 201 212 212 264 233 221 229 225 229 242 252 259 278 262 281
311 317 319 305 304 307 301 310 322 331 331 334 338 331 325 323 313 323 333 305 16 10 271 287 236 238 225 199 239 257 242 200 249 217 218 229 226 219 226 244 244 255 251 261 262 268 249
310 307 320 315 315 318 318 313 312 319 323 326 326 334 323 331 328 331 303 357 344 10 293 264 224 242 205 187 238 224 251 174 199 244 236 255 248 242 253 249 224 246 235 270 271 282 270
328 323 318 318 318 318 315 305 301 309 317 325 320 329 319 337 289 311 316 326 348 23 307 247 164 154 154 172 323 187 196 219 229 228 167 229 240 239 255 262 263 268 231 234 236 254 304
298 309 317 316 311 318 320 310 299 307 315 319 321 318 318 295 262 262 319 322 18 203 247 275 144 184 188 211 254 291 174 213 188 248 260 261 261 253 245 265 239 249 327 291 241 215 261
298 305 312 310 312 312 313 311 309 309 314 316 316 306 307 288 261 309 324 333 339 229 280 234 224 195 195 210 230 235 194 193 191 181 256 263 259 252 247 260 274 152 33 298 293 237 251
295 299 303 297 298 306 309 309 311 312 316 311 315 310 258 247 260 324 352 315 236 265 241 301 336 316 226 217 268 233 229 228 228 225 258 256 270 273 273 216 217 200 164 187 224 227 268
296 292 299 305 298 300 307 312 318 314 311 314 304 266 240 227 242 137 171 213 216 216 261 342 333 303 282 262 280 304 254 260 241 85 234 339 246 359 321 324 193 227 200 220 251 290 288
298 292 294 297 295 299 304 302 302 307 314 326 308 302 251 236 212 152 230 237 241 251 288 342 320 295 319 319 319 315 291 316 313 74 50 352 324 333 335 342 316 178 166 235 245 206 245
290 284 286 289 287 292 294 295 298 306 302 324 325 306 264 207 119 179 224 230 250 259 272 278 286 307 333 328 336 317 299 319 38 50 74 43 11 310 329 245 264 346 329 219 199 184 226
284 290 284 278 276 282 289 290 289 292 291 264 262 263 265 119 193 202 234 232 240 275 286 286 290 322 299 317 315 321 316 314 29 36 347 77 249 291 282 291 167 165 233 319 223 237 224
277 282 283 281 278 281 280 283 276 262 234 186 247 268 268 113 246 236 254 258 252 261 268 271 272 219 251 269 296 299 311 320 3 8 8 0 335 344 330 333 343 10 351 331 327 241 239
281 277 271 279 279 282 277 276 270 246 239 153 279 288 281 133 240 273 286 279 290 288 261 262 281 266 284 282 284 285 304 310 328 342 113 66 99 242 261 281 312 305 306 267 208 297 338
274 272 273 277 272 277 272 265 258 254 233 157 206 254 249 276 239 244 246 259 282 283 307 276 229 248 262 282 291 280 279 276 279 284 209 154 214 239 263 276 288 288 289 289 280 261 194
267 271 273 282 280 269 274 263 249 247 227 177 244 231 322 307 274 261 308 253 262 275 229 333 327 304 325 249 260 314 5 20 349 340 358 350 250 263 274 277 278 279 279 280 275 278 271
273 273 271 270 271 265 254 257 255 248 208 218 195 264 304 272 306 261 219 289 315 325 290 256 217 231 274 303 352 307 268 265 251 253 325 299 250 260 259 265 286 278 261 271 277 279 277
265 269 273 274 268 262 257 261 263 242 206 166 231 271 209 255 215 270 282 262 314 302 288 331 339 286 4 350 330 299 256 251 242 240 214 214 153 261 272 315 264 262 269 258 247 262 290
261 268 270 273 266 259 254 253 254 241 202 174 179 218 277 264 275 303 325 346 320 287 272 255 263 277 140 135 29 303 296 263 240 234 225 211 208 232 278 219 285 293 4 340 263 139 36
265 264 271 271 261 254 253 250 251 243 228 208 223 160 214 321 258 319 41 353 301 310 314 271 277 135 216 112 79 248 259 324 310 329 237 202 193 209 219 252 241 237 19 333 319 91 346
259 264 268 266 260 252 250 248 253 250 230 197 234 199 248 276 261 279 236 287 297 37 312 330 350 273 83 84 234 224 243 251 268 263 275 193 189 215 224 247 281 293 325 278 356 206 261
257 259 258 259 260 250 248 247 248 253 242 204 231 218 199 238 272 274 291 292 289 204 327 355 332 40 311 203 196 237 245 315 280 276 251 183 171 186 181 182 261 322 287 353 173 47 338
256 251 253 254 251 248 245 240 248 251 248 211 227 213 202 246 264 335 279 268 259 247 172 259 268 344 314 307 25 329 298 277 286 288 339 234 152 177 169 205 87 27 2 298 111 123 358